Time,TemperatureF,DewpointF,PressureIn,WindDirection,WindDirectionDegrees,WindSpeedMPH,WindSpeedGustMPH,Humidity,HourlyPrecipIn,Conditions,Clouds,dailyrainin,SoftwareType,DateUTC
2013-01-31 00:01:00,43.7,40.7,30.21,East,101,0.0,0.0,89,0.00,,---,0.00,VWS V14.01,2013-01-31 08:01:00,
2013-01-31 00:06:00,43.7,40.7,30.21,East,101,0.0,0.0,89,0.00,,---,0.00,VWS V14.01,2013-01-31 08:06:00,
2013-01-31 00:11:00,43.7,40.7,30.21,East,101,0.0,0.0,89,0.00,,---,0.00,VWS V14.01,2013-01-31 08:11:00,
2013-01-31 00:16:00,43.6,40.6,30.20,East,101,0.0,0.0,89,0.00,,---,0.00,VWS V14.01,2013-01-31 08:16:00,
2013-01-31 00:21:00,43.5,40.5,30.20,East,101,0.0,0.0,89,0.00,,---,0.00,VWS V14.01,2013-01-31 08:21:00,
2013-01-31 00:26:00,43.4,40.4,30.20,East,101,0.0,0.0,89,0.00,,---,0.00,VWS V14.01,2013-01-31 08:26:00,
2013-01-31 00:31:00,43.3,40.6,30.20,East,101,0.0,0.0,90,0.00,,---,0.00,VWS V14.01,2013-01-31 08:31:00,
2013-01-31 00:36:00,43.4,40.7,30.20,East,101,0.0,0.0,90,0.00,,---,0.00,VWS V14.01,2013-01-31 08:36:00,
2013-01-31 00:41:00,43.4,40.7,30.20,East,101,0.0,0.0,90,0.00,,---,0.00,VWS V14.01,2013-01-31 08:41:00,
2013-01-31 00:46:00,43.4,40.7,30.20,ESE,104,0.0,0.0,90,0.00,,---,0.00,VWS V14.01,2013-01-31 08:46:00,
2013-01-31 00:51:00,43.4,40.7,30.20,ESE,104,0.0,0.0,90,0.00,,---,0.00,VWS V14.01,2013-01-31 08:51:00,
2013-01-31 00:56:00,43.3,40.6,30.20,ESE,104,0.0,0.0,90,0.00,,---,0.00,VWS V14.01,2013-01-31 08:56:00,
2013-01-31 01:01:00,43.2,40.5,30.20,ESE,104,0.0,0.0,90,0.00,,---,0.00,VWS V14.01,2013-01-31 09:01:00,
2013-01-31 01:06:00,43.2,40.5,30.20,ESE,104,0.0,0.0,90,0.00,,---,0.00,VWS V14.01,2013-01-31 09:06:00,
2013-01-31 01:11:00,43.2,40.5,30.20,ESE,104,0.0,0.0,90,0.00,,---,0.00,VWS V14.01,2013-01-31 09:11:00,
2013-01-31 01:16:00,43.1,40.4,30.20,ESE,104,0.0,0.0,90,0.00,,---,0.00,VWS V14.01,2013-01-31 09:16:00,
2013-01-31 01:21:00,43.0,40.3,30.19,ESE,104,0.0,0.0,90,0.00,,---,0.00,VWS V14.01,2013-01-31 09:21:00,
2013-01-31 01:27:00,43.0,40.3,30.20,ESE,104,1.0,0.0,90,0.00,,---,0.00,VWS V14.01,2013-01-31 09:27:00,
2013-01-31 01:32:00,43.1,40.4,30.20,ESE,104,0.0,0.0,90,0.00,,---,0.00,VWS V14.01,2013-01-31 09:32:00,
2013-01-31 01:37:00,43.1,40.4,30.20,East,89,0.0,0.0,90,0.00,,---,0.00,VWS V14.01,2013-01-31 09:37:00,
2013-01-31 01:42:00,43.2,40.5,30.20,East,90,0.0,0.0,90,0.00,,---,0.00,VWS V14.01,2013-01-31 09:42:00,
2013-01-31 01:47:00,43.2,40.5,30.20,East,89,0.0,0.0,90,0.00,,---,0.00,VWS V14.01,2013-01-31 09:47:00,
2013-01-31 01:52:00,43.2,40.5,30.20,East,90,0.0,0.0,90,0.00,,---,0.00,VWS V14.01,2013-01-31 09:52:00,
2013-01-31 01:57:00,43.3,40.3,30.19,East,90,0.0,0.0,89,0.00,,---,0.00,VWS V14.01,2013-01-31 09:57:00,
2013-01-31 02:02:00,43.2,40.2,30.19,ESE,105,0.0,0.0,89,0.00,,---,0.00,VWS V14.01,2013-01-31 10:02:00,
2013-01-31 02:07:00,43.1,40.1,30.19,ESE,107,0.0,0.0,89,0.00,,---,0.00,VWS V14.01,2013-01-31 10:07:00,
2013-01-31 02:12:00,43.0,40.0,30.19,ESE,105,0.0,0.0,89,0.00,,---,0.00,VWS V14.01,2013-01-31 10:12:00,
2013-01-31 02:17:00,42.9,39.9,30.19,ESE,105,0.0,0.0,89,0.00,,---,0.00,VWS V14.01,2013-01-31 10:17:00,
2013-01-31 02:22:00,42.7,39.7,30.19,ESE,105,0.0,0.0,89,0.00,,---,0.00,VWS V14.01,2013-01-31 10:22:00,
2013-01-31 02:27:00,42.6,39.6,30.19,ESE,105,0.0,0.0,89,0.00,,---,0.00,VWS V14.01,2013-01-31 10:27:00,
2013-01-31 02:32:00,42.6,39.9,30.19,ESE,105,0.0,0.0,90,0.00,,---,0.00,VWS V14.01,2013-01-31 10:32:00,
2013-01-31 02:37:00,42.4,39.7,30.18,ESE,105,0.0,0.0,90,0.00,,---,0.00,VWS V14.01,2013-01-31 10:37:00,
2013-01-31 02:42:00,42.4,39.7,30.18,ESE,105,2.0,0.0,90,0.00,,---,0.00,VWS V14.01,2013-01-31 10:42:00,
2013-01-31 02:47:00,42.3,39.6,30.18,ESE,105,0.0,0.0,90,0.00,,---,0.00,VWS V14.01,2013-01-31 10:47:00,
2013-01-31 02:52:00,42.2,39.5,30.18,ESE,105,0.0,0.0,90,0.00,,---,0.00,VWS V14.01,2013-01-31 10:52:00,
2013-01-31 02:57:00,42.1,39.4,30.18,ESE,105,0.0,0.0,90,0.00,,---,0.00,VWS V14.01,2013-01-31 10:57:00,
2013-01-31 03:02:00,42.0,39.3,30.18,ESE,105,0.0,0.0,90,0.00,,---,0.00,VWS V14.01,2013-01-31 11:02:00,
2013-01-31 03:07:00,41.9,39.2,30.18,ESE,105,0.0,0.0,90,0.00,,---,0.00,VWS V14.01,2013-01-31 11:07:00,
2013-01-31 03:12:00,41.9,39.2,30.18,ESE,105,0.0,0.0,90,0.00,,---,0.00,VWS V14.01,2013-01-31 11:12:00,
2013-01-31 03:17:00,41.8,39.1,30.18,ESE,105,0.0,0.0,90,0.00,,---,0.00,VWS V14.01,2013-01-31 11:17:00,
2013-01-31 03:22:00,41.7,39.0,30.18,ESE,105,0.0,0.0,90,0.00,,---,0.00,VWS V14.01,2013-01-31 11:22:00,
2013-01-31 03:28:00,41.6,38.9,30.18,ESE,105,0.0,0.0,90,0.00,,---,0.00,VWS V14.01,2013-01-31 11:28:00,
2013-01-31 03:33:00,41.5,38.8,30.18,ESE,105,0.0,0.0,90,0.00,,---,0.00,VWS V14.01,2013-01-31 11:33:00,
2013-01-31 03:38:00,41.5,39.1,30.18,ESE,105,0.0,0.0,91,0.00,,---,0.00,VWS V14.01,2013-01-31 11:38:00,
2013-01-31 03:43:00,41.4,39.0,30.18,ESE,105,0.0,0.0,91,0.00,,---,0.00,VWS V14.01,2013-01-31 11:43:00,
2013-01-31 03:48:00,41.4,39.0,30.18,ESE,105,0.0,0.0,91,0.00,,---,0.00,VWS V14.01,2013-01-31 11:48:00,
2013-01-31 03:53:00,41.4,39.0,30.18,ESE,105,0.0,0.0,91,0.00,,---,0.00,VWS V14.01,2013-01-31 11:53:00,
2013-01-31 03:58:00,41.3,38.9,30.18,ESE,105,0.0,0.0,91,0.00,,---,0.00,VWS V14.01,2013-01-31 11:58:00,
2013-01-31 04:03:00,41.3,38.9,30.18,ESE,105,0.0,0.0,91,0.00,,---,0.00,VWS V14.01,2013-01-31 12:03:00,
2013-01-31 04:08:00,41.3,38.9,30.18,ESE,105,0.0,0.0,91,0.00,,---,0.00,VWS V14.01,2013-01-31 12:08:00,
2013-01-31 04:13:00,41.2,38.5,30.18,ESE,105,0.0,0.0,90,0.00,,---,0.00,VWS V14.01,2013-01-31 12:13:00,
2013-01-31 04:18:00,41.2,38.5,30.18,ESE,105,0.0,0.0,90,0.00,,---,0.00,VWS V14.01,2013-01-31 12:18:00,
2013-01-31 04:23:00,41.1,38.4,30.18,ESE,105,0.0,0.0,90,0.00,,---,0.00,VWS V14.01,2013-01-31 12:23:00,
2013-01-31 04:28:00,41.0,38.3,30.18,ESE,105,0.0,0.0,90,0.00,,---,0.00,VWS V14.01,2013-01-31 12:28:00,
2013-01-31 04:33:00,41.0,38.3,30.18,ESE,105,0.0,0.0,90,0.00,,---,0.00,VWS V14.01,2013-01-31 12:33:00,
2013-01-31 04:38:00,40.9,38.5,30.18,ESE,105,0.0,0.0,91,0.00,,---,0.00,VWS V14.01,2013-01-31 12:38:00,
2013-01-31 04:43:00,40.9,38.5,30.18,ESE,105,0.0,0.0,91,0.00,,---,0.00,VWS V14.01,2013-01-31 12:43:00,
2013-01-31 04:48:00,40.9,38.2,30.18,ESE,105,0.0,0.0,90,0.00,,---,0.00,VWS V14.01,2013-01-31 12:48:00,
2013-01-31 04:53:00,40.8,38.1,30.18,ESE,105,0.0,0.0,90,0.00,,---,0.00,VWS V14.01,2013-01-31 12:53:00,
2013-01-31 04:58:00,40.7,38.0,30.18,ESE,105,0.0,0.0,90,0.00,,---,0.00,VWS V14.01,2013-01-31 12:58:00,
2013-01-31 05:03:00,40.7,38.3,30.18,ESE,105,0.0,0.0,91,0.00,,---,0.00,VWS V14.01,2013-01-31 13:03:00,
2013-01-31 05:08:00,40.6,37.9,30.18,ESE,105,0.0,0.0,90,0.00,,---,0.00,VWS V14.01,2013-01-31 13:08:00,
2013-01-31 05:13:00,40.5,38.1,30.18,ESE,105,0.0,0.0,91,0.00,,---,0.00,VWS V14.01,2013-01-31 13:13:00,
2013-01-31 05:19:00,40.4,37.7,30.18,ESE,105,0.0,0.0,90,0.00,,---,0.00,VWS V14.01,2013-01-31 13:19:00,
2013-01-31 05:24:00,40.3,37.6,30.18,ESE,106,0.0,0.0,90,0.00,,---,0.00,VWS V14.01,2013-01-31 13:24:00,
2013-01-31 05:29:00,40.3,37.9,30.18,ESE,105,0.0,0.0,91,0.00,,---,0.00,VWS V14.01,2013-01-31 13:29:00,
2013-01-31 05:34:00,40.2,37.8,30.18,ESE,105,0.0,0.0,91,0.00,,---,0.00,VWS V14.01,2013-01-31 13:34:00,
2013-01-31 05:39:00,40.2,37.8,30.18,ESE,105,0.0,0.0,91,0.00,,---,0.00,VWS V14.01,2013-01-31 13:39:00,
2013-01-31 05:44:00,40.2,37.8,30.19,ESE,105,0.0,0.0,91,0.00,,---,0.00,VWS V14.01,2013-01-31 13:44:00,
2013-01-31 05:49:00,40.2,37.5,30.19,ESE,105,0.0,0.0,90,0.00,,---,0.00,VWS V14.01,2013-01-31 13:49:00,
2013-01-31 05:54:00,40.1,37.4,30.19,ESE,105,0.0,0.0,90,0.00,,---,0.00,VWS V14.01,2013-01-31 13:54:00,
2013-01-31 05:59:00,40.0,37.3,30.19,ESE,105,0.0,0.0,90,0.00,,---,0.00,VWS V14.01,2013-01-31 13:59:00,
2013-01-31 06:04:00,39.9,37.2,30.19,ESE,105,0.0,0.0,90,0.00,,---,0.00,VWS V14.01,2013-01-31 14:04:00,
2013-01-31 06:09:00,39.8,37.1,30.19,ESE,105,0.0,0.0,90,0.00,,---,0.00,VWS V14.01,2013-01-31 14:09:00,
2013-01-31 06:14:00,39.8,37.1,30.19,ESE,105,0.0,0.0,90,0.00,,---,0.00,VWS V14.01,2013-01-31 14:14:00,
2013-01-31 06:19:00,39.7,37.0,30.19,ESE,105,0.0,0.0,90,0.00,,---,0.00,VWS V14.01,2013-01-31 14:19:00,
2013-01-31 06:24:00,39.7,37.0,30.19,ESE,105,0.0,0.0,90,0.00,,---,0.00,VWS V14.01,2013-01-31 14:24:00,
2013-01-31 06:29:00,39.6,36.9,30.19,ESE,105,0.0,0.0,90,0.00,,---,0.00,VWS V14.01,2013-01-31 14:29:00,
2013-01-31 06:34:00,39.6,36.9,30.20,ESE,105,0.0,0.0,90,0.00,,---,0.00,VWS V14.01,2013-01-31 14:34:00,
2013-01-31 06:39:00,39.5,36.8,30.20,ESE,105,0.0,0.0,90,0.00,,---,0.00,VWS V14.01,2013-01-31 14:39:00,
2013-01-31 06:44:00,39.5,36.8,30.20,ESE,105,0.0,0.0,90,0.00,,---,0.00,VWS V14.01,2013-01-31 14:44:00,
2013-01-31 06:49:00,39.5,36.8,30.20,ESE,105,0.0,0.0,90,0.00,,---,0.00,VWS V14.01,2013-01-31 14:49:00,
2013-01-31 06:55:00,39.5,36.8,30.20,ESE,105,0.0,0.0,90,0.00,,---,0.00,VWS V14.01,2013-01-31 14:55:00,
2013-01-31 07:00:00,39.5,36.8,30.20,ESE,105,0.0,0.0,90,0.00,,---,0.00,VWS V14.01,2013-01-31 15:00:00,
2013-01-31 07:05:00,39.5,36.8,30.20,ESE,105,0.0,0.0,90,0.00,,---,0.00,VWS V14.01,2013-01-31 15:05:00,
2013-01-31 07:10:00,39.5,36.8,30.20,ESE,105,0.0,0.0,90,0.00,,---,0.00,VWS V14.01,2013-01-31 15:10:00,
2013-01-31 07:15:00,39.5,36.8,30.20,ESE,105,0.0,0.0,90,0.00,,---,0.00,VWS V14.01,2013-01-31 15:15:00,
2013-01-31 07:20:00,39.5,36.8,30.20,ESE,105,0.0,0.0,90,0.00,,---,0.00,VWS V14.01,2013-01-31 15:20:00,
2013-01-31 07:25:00,39.5,36.8,30.20,ESE,105,1.0,0.0,90,0.00,,---,0.00,VWS V14.01,2013-01-31 15:25:00,
2013-01-31 07:30:00,39.5,36.8,30.20,ESE,105,0.0,0.0,90,0.00,,---,0.00,VWS V14.01,2013-01-31 15:30:00,
2013-01-31 07:35:00,39.5,36.8,30.20,ESE,105,0.0,0.0,90,0.00,,---,0.00,VWS V14.01,2013-01-31 15:35:00,
2013-01-31 07:40:00,39.5,36.8,30.21,ESE,105,0.0,0.0,90,0.00,,---,0.00,VWS V14.01,2013-01-31 15:40:00,
2013-01-31 07:45:00,39.5,36.8,30.21,ESE,105,0.0,0.0,90,0.00,,---,0.00,VWS V14.01,2013-01-31 15:45:00,
2013-01-31 07:50:00,39.6,36.9,30.21,ESE,105,0.0,0.0,90,0.00,,---,0.00,VWS V14.01,2013-01-31 15:50:00,
2013-01-31 07:55:00,39.7,37.0,30.21,ESE,105,0.0,0.0,90,0.00,,---,0.00,VWS V14.01,2013-01-31 15:55:00,
2013-01-31 08:00:00,39.8,36.8,30.21,ESE,105,0.0,0.0,89,0.00,,---,0.00,VWS V14.01,2013-01-31 16:00:00,
2013-01-31 08:05:00,40.0,37.0,30.21,ESE,105,1.0,0.0,89,0.00,,---,0.00,VWS V14.01,2013-01-31 16:05:00,
2013-01-31 08:10:00,40.1,37.1,30.22,ESE,105,0.0,0.0,89,0.00,,---,0.00,VWS V14.01,2013-01-31 16:10:00,
2013-01-31 08:15:00,40.3,37.3,30.22,ESE,105,0.0,0.0,89,0.00,,---,0.00,VWS V14.01,2013-01-31 16:15:00,
2013-01-31 08:21:00,40.5,37.5,30.22,ESE,105,0.0,0.0,89,0.00,,---,0.00,VWS V14.01,2013-01-31 16:21:00,
2013-01-31 08:26:00,40.7,37.7,30.22,ESE,105,0.0,0.0,89,0.00,,---,0.00,VWS V14.01,2013-01-31 16:26:00,
2013-01-31 08:31:00,40.9,37.9,30.22,ESE,105,0.0,0.0,89,0.00,,---,0.00,VWS V14.01,2013-01-31 16:31:00,
2013-01-31 08:36:00,41.2,37.9,30.22,ESE,105,0.0,0.0,88,0.00,,---,0.00,VWS V14.01,2013-01-31 16:36:00,
2013-01-31 08:41:00,41.4,38.1,30.22,ESE,105,0.0,0.0,88,0.00,,---,0.00,VWS V14.01,2013-01-31 16:41:00,
2013-01-31 08:46:00,41.7,38.4,30.22,ESE,105,0.0,0.0,88,0.00,,---,0.00,VWS V14.01,2013-01-31 16:46:00,
2013-01-31 08:51:00,41.8,38.2,30.22,ESE,105,1.0,0.0,87,0.00,,---,0.00,VWS V14.01,2013-01-31 16:51:00,
2013-01-31 08:56:00,42.1,38.5,30.22,ESE,105,0.0,0.0,87,0.00,,---,0.00,VWS V14.01,2013-01-31 16:56:00,
2013-01-31 09:01:00,42.5,38.9,30.22,ESE,105,0.0,0.0,87,0.00,,---,0.00,VWS V14.01,2013-01-31 17:01:00,
2013-01-31 09:06:00,43.0,39.4,30.22,ESE,105,0.0,0.0,87,0.00,,---,0.00,VWS V14.01,2013-01-31 17:06:00,
2013-01-31 09:11:00,43.8,39.9,30.22,ESE,105,0.0,0.0,86,0.00,,---,0.00,VWS V14.01,2013-01-31 17:11:00,
2013-01-31 09:16:00,44.6,40.4,30.22,ESE,105,0.0,0.0,85,0.00,,---,0.00,VWS V14.01,2013-01-31 17:16:00,
2013-01-31 09:21:00,45.6,40.7,30.22,East,96,1.0,0.0,83,0.00,,---,0.00,VWS V14.01,2013-01-31 17:21:00,
2013-01-31 09:27:00,46.5,41.0,30.22,East,85,0.0,0.0,81,0.00,,---,0.00,VWS V14.01,2013-01-31 17:27:00,
2013-01-31 09:32:00,47.3,41.5,30.22,East,88,0.0,0.0,80,0.00,,---,0.00,VWS V14.01,2013-01-31 17:32:00,
2013-01-31 09:37:00,48.1,41.9,30.22,ESE,114,0.0,0.0,79,0.00,,---,0.00,VWS V14.01,2013-01-31 17:37:00,
2013-01-31 09:42:00,48.7,41.8,30.22,ESE,112,0.0,0.0,77,0.00,,---,0.00,VWS V14.01,2013-01-31 17:42:00,
2013-01-31 09:47:00,49.3,41.7,30.22,East,95,2.0,0.0,75,0.00,,---,0.00,VWS V14.01,2013-01-31 17:47:00,
2013-01-31 09:52:00,49.9,42.0,30.21,East,97,0.0,0.0,74,0.00,,---,0.00,VWS V14.01,2013-01-31 17:52:00,
2013-01-31 09:57:00,50.2,42.2,30.22,East,97,0.0,0.0,74,0.00,,---,0.00,VWS V14.01,2013-01-31 17:57:00,
2013-01-31 10:02:00,50.7,42.4,30.21,East,97,0.0,0.0,73,0.00,,---,0.00,VWS V14.01,2013-01-31 18:02:00,
2013-01-31 10:07:00,51.2,42.5,30.21,East,97,2.0,0.0,72,0.00,,---,0.00,VWS V14.01,2013-01-31 18:07:00,
2013-01-31 10:12:00,51.6,42.5,30.21,East,97,1.0,0.0,71,0.00,,---,0.00,VWS V14.01,2013-01-31 18:12:00,
2013-01-31 10:17:00,51.9,42.8,30.21,East,92,2.0,0.0,71,0.00,,---,0.00,VWS V14.01,2013-01-31 18:17:00,
2013-01-31 10:22:00,52.3,42.8,30.21,East,92,0.0,0.0,70,0.00,,---,0.00,VWS V14.01,2013-01-31 18:22:00,
2013-01-31 10:27:00,52.7,43.6,30.21,East,92,0.0,0.0,71,0.00,,---,0.00,VWS V14.01,2013-01-31 18:27:00,
2013-01-31 10:32:00,53.2,44.4,30.21,East,92,0.0,0.0,72,0.00,,---,0.00,VWS V14.01,2013-01-31 18:32:00,
2013-01-31 10:37:00,53.8,44.3,30.21,East,92,0.0,0.0,70,0.00,,---,0.00,VWS V14.01,2013-01-31 18:37:00,
2013-01-31 10:42:00,54.5,44.2,30.21,ENE,69,0.0,0.0,68,0.00,,---,0.00,VWS V14.01,2013-01-31 18:42:00,
2013-01-31 10:47:00,55.1,44.3,30.21,ENE,69,0.0,0.0,67,0.00,,---,0.00,VWS V14.01,2013-01-31 18:47:00,
2013-01-31 10:52:00,55.7,44.9,30.20,ENE,69,0.0,0.0,67,0.00,,---,0.00,VWS V14.01,2013-01-31 18:52:00,
2013-01-31 10:57:00,56.2,44.6,30.20,WNW,292,0.0,0.0,65,0.00,,---,0.00,VWS V14.01,2013-01-31 18:57:00,
2013-01-31 11:02:00,56.8,44.8,30.20,WNW,292,1.0,0.0,64,0.00,,---,0.00,VWS V14.01,2013-01-31 19:02:00,
2013-01-31 11:08:00,57.3,45.2,30.19,North,5,0.0,0.0,64,0.00,,---,0.00,VWS V14.01,2013-01-31 19:08:00,
2013-01-31 11:13:00,57.8,44.9,30.19,West,269,0.0,0.0,62,0.00,,---,0.00,VWS V14.01,2013-01-31 19:13:00,
2013-01-31 11:18:00,58.3,45.3,30.19,West,274,0.0,0.0,62,0.00,,---,0.00,VWS V14.01,2013-01-31 19:18:00,
2013-01-31 11:23:00,58.7,46.2,30.19,NNE,27,0.0,0.0,63,0.00,,---,0.00,VWS V14.01,2013-01-31 19:23:00,
2013-01-31 11:28:00,59.1,45.2,30.19,East,96,1.0,0.0,60,0.00,,---,0.00,VWS V14.01,2013-01-31 19:28:00,
2013-01-31 11:33:00,59.4,45.5,30.18,ENE,63,2.0,0.0,60,0.00,,---,0.00,VWS V14.01,2013-01-31 19:33:00,
2013-01-31 11:38:00,59.6,45.3,30.18,NNW,348,0.0,0.0,59,0.00,,---,0.00,VWS V14.01,2013-01-31 19:38:00,
2013-01-31 11:43:00,59.8,45.0,30.18,SE,130,0.0,0.0,58,0.00,,---,0.00,VWS V14.01,2013-01-31 19:43:00,
2013-01-31 11:48:00,60.0,45.2,30.18,WNW,303,0.0,0.0,58,0.00,,---,0.00,VWS V14.01,2013-01-31 19:48:00,
2013-01-31 11:53:00,60.4,45.6,30.17,North,355,0.0,0.0,58,0.00,,---,0.00,VWS V14.01,2013-01-31 19:53:00,
2013-01-31 11:58:00,60.9,45.1,30.17,NNE,15,1.0,0.0,56,0.00,,---,0.00,VWS V14.01,2013-01-31 19:58:00,
2013-01-31 12:03:00,61.3,46.0,30.17,NE,39,1.0,0.0,57,0.00,,---,0.00,VWS V14.01,2013-01-31 20:03:00,
2013-01-31 12:08:00,61.6,44.3,30.17,NE,55,1.0,0.0,53,0.00,,---,0.00,VWS V14.01,2013-01-31 20:08:00,
2013-01-31 12:13:00,61.4,44.6,30.16,East,101,0.0,0.0,54,0.00,,---,0.00,VWS V14.01,2013-01-31 20:13:00,
2013-01-31 12:18:00,61.6,44.8,30.16,NNW,341,0.0,0.0,54,0.00,,---,0.00,VWS V14.01,2013-01-31 20:18:00,
2013-01-31 12:23:00,62.4,45.5,30.16,NNW,341,0.0,0.0,54,0.00,,---,0.00,VWS V14.01,2013-01-31 20:23:00,
2013-01-31 12:28:00,62.9,46.0,30.16,NNE,32,1.0,0.0,54,0.00,,---,0.00,VWS V14.01,2013-01-31 20:28:00,
2013-01-31 12:33:00,63.5,46.6,30.15,North,5,2.0,0.0,54,0.00,,---,0.00,VWS V14.01,2013-01-31 20:33:00,
2013-01-31 12:39:00,63.9,46.0,30.15,NE,52,2.0,0.0,52,0.00,,---,0.00,VWS V14.01,2013-01-31 20:39:00,
2013-01-31 12:44:00,64.1,45.6,30.15,NE,53,0.0,0.0,51,0.00,,---,0.00,VWS V14.01,2013-01-31 20:44:00,
2013-01-31 12:49:00,63.9,46.0,30.15,NW,316,2.0,0.0,52,0.00,,---,0.00,VWS V14.01,2013-01-31 20:49:00,
2013-01-31 12:54:00,64.2,46.2,30.15,NNW,348,2.0,0.0,52,0.00,,---,0.00,VWS V14.01,2013-01-31 20:54:00,
2013-01-31 12:59:00,64.6,45.6,30.14,North,360,1.0,0.0,50,0.00,,---,0.00,VWS V14.01,2013-01-31 20:59:00,
2013-01-31 13:04:00,64.9,47.4,30.14,ESE,115,0.0,0.0,53,0.00,,---,0.00,VWS V14.01,2013-01-31 21:04:00,
2013-01-31 13:09:00,65.5,47.4,30.14,WNW,285,1.0,0.0,52,0.00,,---,0.00,VWS V14.01,2013-01-31 21:09:00,
2013-01-31 13:14:00,65.8,46.1,30.14,NE,43,1.0,0.0,49,0.00,,---,0.00,VWS V14.01,2013-01-31 21:14:00,
2013-01-31 13:19:00,65.8,47.7,30.13,North,355,1.0,0.0,52,0.00,,---,0.00,VWS V14.01,2013-01-31 21:19:00,
2013-01-31 13:24:00,66.5,47.8,30.13,NNE,21,4.0,0.0,51,0.00,,---,0.00,VWS V14.01,2013-01-31 21:24:00,
2013-01-31 13:29:00,67.0,46.7,30.13,East,84,0.0,0.0,48,0.00,,---,0.00,VWS V14.01,2013-01-31 21:29:00,
2013-01-31 13:34:00,66.8,46.5,30.13,East,86,0.0,0.0,48,0.00,,---,0.00,VWS V14.01,2013-01-31 21:34:00,
2013-01-31 13:39:00,66.7,47.5,30.13,NE,46,1.0,0.0,50,0.00,,---,0.00,VWS V14.01,2013-01-31 21:39:00,
2013-01-31 13:44:00,66.7,46.4,30.13,NE,52,0.0,0.0,48,0.00,,---,0.00,VWS V14.01,2013-01-31 21:44:00,
2013-01-31 13:49:00,66.5,47.8,30.13,North,355,0.0,0.0,51,0.00,,---,0.00,VWS V14.01,2013-01-31 21:49:00,
2013-01-31 13:54:00,67.0,47.2,30.13,NNW,328,2.0,0.0,49,0.00,,---,0.00,VWS V14.01,2013-01-31 21:54:00,
2013-01-31 14:00:00,67.2,48.0,30.13,NW,323,1.0,0.0,50,0.00,,---,0.00,VWS V14.01,2013-01-31 22:00:00,
2013-01-31 14:05:00,67.1,46.8,30.12,NNE,16,2.0,0.0,48,0.00,,---,0.00,VWS V14.01,2013-01-31 22:05:00,
2013-01-31 14:10:00,67.7,47.9,30.12,West,279,3.0,0.0,49,0.00,,---,0.00,VWS V14.01,2013-01-31 22:10:00,
2013-01-31 14:15:00,67.2,47.4,30.12,NW,313,0.0,0.0,49,0.00,,---,0.00,VWS V14.01,2013-01-31 22:15:00,
2013-01-31 14:20:00,66.7,47.0,30.12,NE,54,3.0,0.0,49,0.00,,---,0.00,VWS V14.01,2013-01-31 22:20:00,
2013-01-31 14:25:00,66.1,46.9,30.12,NE,55,1.0,0.0,50,0.00,,---,0.00,VWS V14.01,2013-01-31 22:25:00,
2013-01-31 14:30:00,65.8,47.2,30.13,North,11,2.0,0.0,51,0.00,,---,0.00,VWS V14.01,2013-01-31 22:30:00,
2013-01-31 14:35:00,66.3,47.7,30.12,NE,43,1.0,0.0,51,0.00,,---,0.00,VWS V14.01,2013-01-31 22:35:00,
2013-01-31 14:40:00,66.8,47.6,30.12,NE,36,1.0,0.0,50,0.00,,---,0.00,VWS V14.01,2013-01-31 22:40:00,
2013-01-31 14:45:00,66.4,46.7,30.12,ENE,63,3.0,0.0,49,0.00,,---,0.00,VWS V14.01,2013-01-31 22:45:00,
2013-01-31 14:50:00,66.5,47.3,30.12,North,350,5.0,0.0,50,0.00,,---,0.00,VWS V14.01,2013-01-31 22:50:00,
2013-01-31 14:55:00,66.8,47.0,30.12,NNW,333,1.0,0.0,49,0.00,,---,0.00,VWS V14.01,2013-01-31 22:55:00,
2013-01-31 15:00:00,66.8,47.6,30.12,North,5,0.0,0.0,50,0.00,,---,0.00,VWS V14.01,2013-01-31 23:00:00,
2013-01-31 15:05:00,66.9,47.1,30.12,East,81,1.0,0.0,49,0.00,,---,0.00,VWS V14.01,2013-01-31 23:05:00,
2013-01-31 15:10:00,66.6,47.4,30.12,NE,46,3.0,0.0,50,0.00,,---,0.00,VWS V14.01,2013-01-31 23:10:00,
2013-01-31 15:15:00,66.5,47.3,30.12,North,5,1.0,0.0,50,0.00,,---,0.00,VWS V14.01,2013-01-31 23:15:00,
2013-01-31 15:20:00,66.2,46.5,30.12,NNE,23,1.0,0.0,49,0.00,,---,0.00,VWS V14.01,2013-01-31 23:20:00,
2013-01-31 15:25:00,65.6,47.0,30.12,NNE,13,0.0,0.0,51,0.00,,---,0.00,VWS V14.01,2013-01-31 23:25:00,
2013-01-31 15:31:00,65.0,47.0,30.12,ENE,57,0.0,0.0,52,0.00,,---,0.00,VWS V14.01,2013-01-31 23:31:00,
2013-01-31 15:36:00,64.4,46.4,30.12,NNW,329,1.0,0.0,52,0.00,,---,0.00,VWS V14.01,2013-01-31 23:36:00,
2013-01-31 15:41:00,63.9,46.0,30.12,North,5,2.0,0.0,52,0.00,,---,0.00,VWS V14.01,2013-01-31 23:41:00,
2013-01-31 15:46:00,63.5,46.1,30.12,NNW,338,1.0,0.0,53,0.00,,---,0.00,VWS V14.01,2013-01-31 23:46:00,
2013-01-31 15:51:00,63.2,45.8,30.12,NNW,333,1.0,0.0,53,0.00,,---,0.00,VWS V14.01,2013-01-31 23:51:00,
2013-01-31 15:56:00,62.8,45.9,30.12,NE,45,2.0,0.0,54,0.00,,---,0.00,VWS V14.01,2013-01-31 23:56:00,
2013-01-31 16:01:00,62.5,45.7,30.11,NNE,29,0.0,0.0,54,0.00,,---,0.00,VWS V14.01,2013-02-01 00:01:00,
2013-01-31 16:06:00,62.0,45.7,30.11,ENE,58,1.0,0.0,55,0.00,,---,0.00,VWS V14.01,2013-02-01 00:06:00,
2013-01-31 16:11:00,61.5,45.7,30.11,East,88,0.0,0.0,56,0.00,,---,0.00,VWS V14.01,2013-02-01 00:11:00,
2013-01-31 16:16:00,61.2,45.4,30.11,ENE,71,0.0,0.0,56,0.00,,---,0.00,VWS V14.01,2013-02-01 00:16:00,
2013-01-31 16:21:00,60.9,45.6,30.11,NE,55,1.0,0.0,57,0.00,,---,0.00,VWS V14.01,2013-02-01 00:21:00,
2013-01-31 16:26:00,60.6,45.3,30.11,NE,55,0.0,0.0,57,0.00,,---,0.00,VWS V14.01,2013-02-01 00:26:00,
2013-01-31 16:31:00,60.3,45.5,30.11,ENE,71,0.0,0.0,58,0.00,,---,0.00,VWS V14.01,2013-02-01 00:31:00,
2013-01-31 16:36:00,60.1,46.2,30.11,ENE,71,0.0,0.0,60,0.00,,---,0.00,VWS V14.01,2013-02-01 00:36:00,
2013-01-31 16:41:00,59.8,45.9,30.11,NNE,17,0.0,0.0,60,0.00,,---,0.00,VWS V14.01,2013-02-01 00:41:00,
2013-01-31 16:46:00,59.6,46.2,30.11,North,355,0.0,0.0,61,0.00,,---,0.00,VWS V14.01,2013-02-01 00:46:00,
2013-01-31 16:51:00,59.4,46.0,30.11,North,5,0.0,0.0,61,0.00,,---,0.00,VWS V14.01,2013-02-01 00:51:00,
2013-01-31 16:56:00,59.2,45.8,30.11,North,5,0.0,0.0,61,0.00,,---,0.00,VWS V14.01,2013-02-01 00:56:00,
2013-01-31 17:02:00,59.0,46.0,30.11,North,9,0.0,0.0,62,0.00,,---,0.00,VWS V14.01,2013-02-01 01:02:00,
2013-01-31 17:07:00,58.7,46.2,30.11,North,5,0.0,0.0,63,0.00,,---,0.00,VWS V14.01,2013-02-01 01:07:00,
2013-01-31 17:12:00,58.4,45.9,30.11,North,5,0.0,0.0,63,0.00,,---,0.00,VWS V14.01,2013-02-01 01:12:00,
2013-01-31 17:17:00,57.8,45.7,30.11,North,5,0.0,0.0,64,0.00,,---,0.00,VWS V14.01,2013-02-01 01:17:00,
2013-01-31 17:22:00,57.2,45.6,30.11,North,5,0.0,0.0,65,0.00,,---,0.00,VWS V14.01,2013-02-01 01:22:00,
2013-01-31 17:27:00,56.6,45.8,30.11,North,5,0.0,0.0,67,0.00,,---,0.00,VWS V14.01,2013-02-01 01:27:00,
2013-01-31 17:32:00,56.0,45.6,30.11,North,5,0.0,0.0,68,0.00,,---,0.00,VWS V14.01,2013-02-01 01:32:00,
2013-01-31 17:37:00,55.4,45.4,30.11,North,5,0.0,0.0,69,0.00,,---,0.00,VWS V14.01,2013-02-01 01:37:00,
2013-01-31 17:42:00,54.9,45.3,30.11,North,5,0.0,0.0,70,0.00,,---,0.00,VWS V14.01,2013-02-01 01:42:00,
2013-01-31 17:47:00,54.4,45.2,30.11,North,5,0.0,0.0,71,0.00,,---,0.00,VWS V14.01,2013-02-01 01:47:00,
2013-01-31 17:52:00,54.0,45.2,30.11,North,5,0.0,0.0,72,0.00,,---,0.00,VWS V14.01,2013-02-01 01:52:00,
2013-01-31 17:57:00,53.6,44.8,30.11,North,5,0.0,0.0,72,0.00,,---,0.00,VWS V14.01,2013-02-01 01:57:00,
2013-01-31 18:02:00,53.3,44.9,30.11,North,5,0.0,0.0,73,0.00,,---,0.00,VWS V14.01,2013-02-01 02:02:00,
2013-01-31 18:07:00,53.0,45.0,30.11,North,9,0.0,0.0,74,0.00,,---,0.00,VWS V14.01,2013-02-01 02:07:00,
2013-01-31 18:12:00,52.8,44.8,30.11,North,5,0.0,0.0,74,0.00,,---,0.00,VWS V14.01,2013-02-01 02:12:00,
2013-01-31 18:17:00,52.6,44.9,30.11,North,9,0.0,0.0,75,0.00,,---,0.00,VWS V14.01,2013-02-01 02:17:00,
2013-01-31 18:22:00,52.4,44.7,30.11,North,5,0.0,0.0,75,0.00,,---,0.00,VWS V14.01,2013-02-01 02:22:00,
2013-01-31 18:28:00,52.4,45.1,30.11,North,5,0.0,0.0,76,0.00,,---,0.00,VWS V14.01,2013-02-01 02:28:00,
2013-01-31 18:33:00,52.3,45.0,30.11,North,5,0.0,0.0,76,0.00,,---,0.00,VWS V14.01,2013-02-01 02:33:00,
2013-01-31 18:38:00,52.2,44.9,30.11,North,5,0.0,0.0,76,0.00,,---,0.00,VWS V14.01,2013-02-01 02:38:00,
2013-01-31 18:43:00,52.0,44.7,30.11,North,5,0.0,0.0,76,0.00,,---,0.00,VWS V14.01,2013-02-01 02:43:00,
2013-01-31 18:48:00,51.8,44.5,30.11,North,5,0.0,0.0,76,0.00,,---,0.00,VWS V14.01,2013-02-01 02:48:00,
2013-01-31 18:53:00,51.7,44.7,30.11,North,5,0.0,0.0,77,0.00,,---,0.00,VWS V14.01,2013-02-01 02:53:00,
2013-01-31 18:58:00,51.4,44.4,30.11,North,5,0.0,0.0,77,0.00,,---,0.00,VWS V14.01,2013-02-01 02:58:00,
2013-01-31 19:03:00,51.1,44.2,30.10,North,5,0.0,0.0,77,0.00,,---,0.00,VWS V14.01,2013-02-01 03:03:00,
2013-01-31 19:08:00,50.7,44.1,30.10,North,5,0.0,0.0,78,0.00,,---,0.00,VWS V14.01,2013-02-01 03:08:00,
2013-01-31 19:13:00,50.3,44.0,30.11,North,5,0.0,0.0,79,0.00,,---,0.00,VWS V14.01,2013-02-01 03:13:00,
2013-01-31 19:18:00,50.0,43.8,30.10,North,5,0.0,0.0,79,0.00,,---,0.00,VWS V14.01,2013-02-01 03:18:00,
2013-01-31 19:23:00,49.7,43.8,30.10,North,5,0.0,0.0,80,0.00,,---,0.00,VWS V14.01,2013-02-01 03:23:00,
2013-01-31 19:28:00,49.6,43.7,30.10,North,5,0.0,0.0,80,0.00,,---,0.00,VWS V14.01,2013-02-01 03:28:00,
2013-01-31 19:33:00,49.5,43.9,30.10,North,5,0.0,0.0,81,0.00,,---,0.00,VWS V14.01,2013-02-01 03:33:00,
2013-01-31 19:38:00,49.4,43.8,30.10,North,5,0.0,0.0,81,0.00,,---,0.00,VWS V14.01,2013-02-01 03:38:00,
2013-01-31 19:44:00,49.2,43.6,30.10,North,5,0.0,0.0,81,0.00,,---,0.00,VWS V14.01,2013-02-01 03:44:00,
2013-01-31 19:49:00,49.1,43.5,30.10,North,5,0.0,0.0,81,0.00,,---,0.00,VWS V14.01,2013-02-01 03:49:00,
2013-01-31 19:54:00,49.0,43.4,30.10,North,5,0.0,0.0,81,0.00,,---,0.00,VWS V14.01,2013-02-01 03:54:00,
2013-01-31 19:59:00,48.9,43.7,30.10,North,5,0.0,0.0,82,0.00,,---,0.00,VWS V14.01,2013-02-01 03:59:00,
2013-01-31 20:04:00,48.8,43.6,30.10,North,5,0.0,0.0,82,0.00,,---,0.00,VWS V14.01,2013-02-01 04:04:00,
2013-01-31 20:09:00,48.7,43.5,30.10,ENE,57,0.0,0.0,82,0.00,,---,0.00,VWS V14.01,2013-02-01 04:09:00,
2013-01-31 20:14:00,48.6,43.7,30.10,East,99,0.0,0.0,83,0.00,,---,0.00,VWS V14.01,2013-02-01 04:14:00,
2013-01-31 20:19:00,48.5,43.6,30.11,East,99,0.0,0.0,83,0.00,,---,0.00,VWS V14.01,2013-02-01 04:19:00,
2013-01-31 20:24:00,48.4,43.5,30.11,East,84,2.0,0.0,83,0.00,,---,0.00,VWS V14.01,2013-02-01 04:24:00,
2013-01-31 20:29:00,48.3,43.4,30.11,East,101,0.0,0.0,83,0.00,,---,0.00,VWS V14.01,2013-02-01 04:29:00,
2013-01-31 20:34:00,48.3,43.4,30.11,East,91,2.0,0.0,83,0.00,,---,0.00,VWS V14.01,2013-02-01 04:34:00,
2013-01-31 20:39:00,48.3,43.7,30.11,ESE,105,0.0,0.0,84,0.00,,---,0.00,VWS V14.01,2013-02-01 04:39:00,
2013-01-31 20:44:00,48.2,43.6,30.10,ESE,105,0.0,0.0,84,0.00,,---,0.00,VWS V14.01,2013-02-01 04:44:00,
2013-01-31 20:49:00,48.1,43.5,30.10,ESE,105,0.0,0.0,84,0.00,,---,0.00,VWS V14.01,2013-02-01 04:49:00,
2013-01-31 20:54:00,47.8,43.2,30.11,ESE,105,0.0,0.0,84,0.00,,---,0.00,VWS V14.01,2013-02-01 04:54:00,
2013-01-31 21:00:00,47.6,43.3,30.11,ESE,105,0.0,0.0,85,0.00,,---,0.00,VWS V14.01,2013-02-01 05:00:00,
2013-01-31 21:01:00,47.6,43.3,30.11,ESE,105,0.0,0.0,85,0.00,,---,0.00,VWS V14.01,2013-02-01 05:01:00,
2013-01-31 21:02:00,47.6,43.3,30.11,ESE,105,0.0,0.0,85,0.00,,---,0.00,VWS V14.01,2013-02-01 05:02:00,
2013-01-31 21:07:00,47.5,43.2,30.11,ESE,105,0.0,0.0,85,0.00,,---,0.00,VWS V14.01,2013-02-01 05:07:00,
2013-01-31 21:12:00,47.3,43.0,30.11,ESE,105,0.0,0.0,85,0.00,,---,0.00,VWS V14.01,2013-02-01 05:12:00,
2013-01-31 21:17:00,47.2,43.2,30.11,ESE,105,0.0,0.0,86,0.00,,---,0.00,VWS V14.01,2013-02-01 05:17:00,
2013-01-31 21:22:00,47.2,43.2,30.11,ESE,105,0.0,0.0,86,0.00,,---,0.00,VWS V14.01,2013-02-01 05:22:00,
2013-01-31 21:27:00,47.1,43.1,30.11,ESE,105,0.0,0.0,86,0.00,,---,0.00,VWS V14.01,2013-02-01 05:27:00,
2013-01-31 21:32:00,47.0,43.0,30.11,ESE,105,0.0,0.0,86,0.00,,---,0.00,VWS V14.01,2013-02-01 05:32:00,
2013-01-31 21:37:00,46.9,42.9,30.11,ESE,105,0.0,0.0,86,0.00,,---,0.00,VWS V14.01,2013-02-01 05:37:00,
2013-01-31 21:42:00,46.8,42.8,30.11,ESE,105,0.0,0.0,86,0.00,,---,0.00,VWS V14.01,2013-02-01 05:42:00,
2013-01-31 21:47:00,46.6,42.9,30.11,ESE,105,0.0,0.0,87,0.00,,---,0.00,VWS V14.01,2013-02-01 05:47:00,
2013-01-31 21:52:00,46.6,42.9,30.11,ESE,105,0.0,0.0,87,0.00,,---,0.00,VWS V14.01,2013-02-01 05:52:00,
2013-01-31 21:58:00,46.6,42.9,30.11,ESE,105,0.0,0.0,87,0.00,,---,0.00,VWS V14.01,2013-02-01 05:58:00,
2013-01-31 22:03:00,46.5,42.8,30.11,ESE,105,0.0,0.0,87,0.00,,---,0.00,VWS V14.01,2013-02-01 06:03:00,
2013-01-31 22:08:00,46.5,42.8,30.11,ESE,105,0.0,0.0,87,0.00,,---,0.00,VWS V14.01,2013-02-01 06:08:00,
2013-01-31 22:13:00,46.5,42.8,30.10,ESE,105,0.0,0.0,87,0.00,,---,0.00,VWS V14.01,2013-02-01 06:13:00,
2013-01-31 22:18:00,46.4,42.8,30.10,ENE,63,0.0,0.0,87,0.00,,---,0.00,VWS V14.01,2013-02-01 06:18:00,
2013-01-31 22:23:00,46.2,42.5,30.10,ENE,63,0.0,0.0,87,0.00,,---,0.00,VWS V14.01,2013-02-01 06:23:00,
2013-01-31 22:28:00,46.1,42.5,30.10,WNW,296,0.0,0.0,87,0.00,,---,0.00,VWS V14.01,2013-02-01 06:28:00,
2013-01-31 22:33:00,46.1,42.8,30.10,WNW,296,0.0,0.0,88,0.00,,---,0.00,VWS V14.01,2013-02-01 06:33:00,
2013-01-31 22:38:00,46.0,42.7,30.10,East,94,0.0,0.0,88,0.00,,---,0.00,VWS V14.01,2013-02-01 06:38:00,
2013-01-31 22:43:00,46.0,42.7,30.10,SE,134,0.0,0.0,88,0.00,,---,0.00,VWS V14.01,2013-02-01 06:43:00,
2013-01-31 22:48:00,45.9,42.5,30.10,East,95,1.0,0.0,88,0.00,,---,0.00,VWS V14.01,2013-02-01 06:48:00,
2013-01-31 22:53:00,45.9,42.5,30.10,ESE,121,0.0,0.0,88,0.00,,---,0.00,VWS V14.01,2013-02-01 06:53:00,
2013-01-31 22:58:00,46.0,42.7,30.10,East,93,0.0,0.0,88,0.00,,---,0.00,VWS V14.01,2013-02-01 06:58:00,
2013-01-31 23:03:00,46.1,42.8,30.10,East,93,0.0,0.0,88,0.00,,---,0.00,VWS V14.01,2013-02-01 07:03:00,
2013-01-31 23:08:00,46.1,42.5,30.10,ESE,112,4.0,0.0,87,0.00,,---,0.00,VWS V14.01,2013-02-01 07:08:00,
2013-01-31 23:13:00,46.1,42.5,30.11,East,86,0.0,0.0,87,0.00,,---,0.00,VWS V14.01,2013-02-01 07:13:00,
2013-01-31 23:18:00,46.2,42.5,30.11,East,93,0.0,0.0,87,0.00,,---,0.00,VWS V14.01,2013-02-01 07:18:00,
2013-01-31 23:23:00,46.2,42.5,30.10,SW,222,0.0,0.0,87,0.00,,---,0.00,VWS V14.01,2013-02-01 07:23:00,
2013-01-31 23:28:00,46.1,42.5,30.10,South,170,0.0,0.0,87,0.00,,---,0.00,VWS V14.01,2013-02-01 07:28:00,
2013-01-31 23:33:00,46.1,42.5,30.10,South,170,0.0,0.0,87,0.00,,---,0.00,VWS V14.01,2013-02-01 07:33:00,
2013-01-31 23:38:00,46.1,42.5,30.10,South,170,0.0,0.0,87,0.00,,---,0.00,VWS V14.01,2013-02-01 07:38:00,
2013-01-31 23:44:00,46.0,42.0,30.10,South,170,0.0,0.0,86,0.00,,---,0.00,VWS V14.01,2013-02-01 07:44:00,
2013-01-31 23:49:00,45.8,42.2,30.10,South,170,0.0,0.0,87,0.00,,---,0.00,VWS V14.01,2013-02-01 07:49:00,
2013-01-31 23:54:00,45.6,42.0,30.10,South,170,0.0,0.0,87,0.00,,---,0.00,VWS V14.01,2013-02-01 07:54:00,
2013-01-31 23:59:00,45.5,41.9,30.10,SSE,166,0.0,0.0,87,0.00,,---,0.00,VWS V14.01,2013-02-01 07:59:00,